Location: Boulin
(43.2500°N, 0.1333°E)
Time: 17:40:02
(UTC+00:00)

EXPRESS MD2 - Pass Details

Date: 11 December 2025
Orbit: 257 x 2825 km, 49.8° (Epoch: 22 January)

Event Time Altitude Azimuth Distance (km) Brightness Sun altitude
Rises 17:43:47 0° 224° (SW) 1,897 7.3 -14.0°
Reaches altitude 10° 17:45:25 10° 216° (SW) 1,177 5.9 -14.3°
Maximum altitude 17:47:47 44° 142° (SE) 520 3.0 -14.7°
Enters shadow 17:48:48 31° 91° (E) 737 3.4 -14.8°
